Location: Ottawa
(45.4170°N, 75.7000°W)
Time: 21:54:16
(UTC-04:00)

ISS - Pass Details

Date: 25 May 2021
Orbit: 417 x 422 km, 51.6° (Epoch: 13 June)

Event Time Altitude Azimuth Distance (km) Brightness Sun altitude
Rises 22:24:49 0° 298° (WNW) 2,367 1.3 -14.7°
Reaches altitude 10° 22:26:59 10° 306° (NW) 1,503 0.3 -14.9°
Maximum altitude 22:30:14 43° 19° (NNE) 600 -2.7 -15.3°
Enters shadow 22:32:26 18° 86° (E) 1,113 -1.9 -15.5°
